Weather History for Teterboro, NJ

Change the Weather History Date:

Wednesday, April 2, 2014

  Actual Average Record
Temperature  
Mean Temperature 47 °F -  
Max Temperature 55 °F 54 °F 68 °F (2006)
Min Temperature 41 °F 36 °F 30 °F (2013)
Degree Days  
Heating Degree Days 18    
Moisture  
Dew Point 37 °F    
Average Humidity 70    
Maximum Humidity 82    
Minimum Humidity 58    
Precipitation  
Precipitation 0.00 in - - ()
Sea Level Pressure  
Sea Level Pressure 30.08 in    
Wind  
Wind Speed 4 mph (South)    
Max Wind Speed 9 mph    
Max Gust Speed -    
Visibility 10 miles    
Events Rain    
Averages and records for this station are not official NWS values.
T = Trace of Precipitation, MM = Missing Value Source: NWS Daily Summary

Daily Weather History Graph

Daily Weather History Graph

Search for Another Location

Airport:

Trip Planner

Search our weather history database for the weather conditions in past years. The results will help you decide how hot, cold, wet, or windy it might be!

Date:

Astronomy

Apr. 02, 2014 Rise Set
Actual Time 6:38 AM EDT 7:22 PM EDT
Civil Twilight 6:10 AM EDT 7:49 PM EDT
Nautical Twilight 5:37 AM EDT 8:22 PM EDT
Astronomical Twilight 5:03 AM EDT 8:56 PM EDT
Moon 8:19 AM EDT (4/2) 10:44 PM EDT (4/2)
Length of Visible Light 13h 39m
Length of Day
12h 44m
Waxing Crescent, 10% of the Moon is Illuminated
Apr 2
Waxing Crescent
Apr 7
First Quarter
Apr 15
Full
Apr 22
Last Quarter
Apr 29
New

Hourly Weather History & Observations

Time (EDT) Temp. Windchill Dew Point Humidity Pressure Visibility Wind Dir Wind Speed Gust Speed Precip Events Conditions
12:51 AM 43.0 °F 38.8 °F 33.1 °F 68% 30.06 in 10.0 mi South 6.9 mph - N/A   Clear
1:51 AM 42.1 °F 40.2 °F 33.1 °F 70% 30.06 in 10.0 mi SSW 3.5 mph - N/A   Clear
2:51 AM 42.1 °F 40.2 °F 33.1 °F 70% 30.07 in 10.0 mi South 3.5 mph - N/A   Clear
3:51 AM 42.1 °F 39.2 °F 34.0 °F 73% 30.06 in 10.0 mi SSE 4.6 mph - N/A   Clear
4:51 AM 41.0 °F 37.1 °F 34.0 °F 76% 30.08 in 10.0 mi South 5.8 mph - N/A   Clear
5:51 AM 43.0 °F - 34.0 °F 71% 30.08 in 10.0 mi Calm Calm - N/A   Clear
6:51 AM 43.0 °F - 36.0 °F 76% 30.08 in 10.0 mi Calm Calm - N/A   Clear
8:51 AM 46.9 °F - 37.9 °F 71% 30.12 in 10.0 mi ESE 8.1 mph - N/A   Clear
9:51 AM 46.0 °F 44.8 °F 37.0 °F 71% 30.15 in 10.0 mi SW 3.5 mph - N/A   Mostly Cloudy
10:51 AM 46.9 °F - 37.9 °F 71% 30.12 in 10.0 mi SSE 5.8 mph - N/A   Overcast
11:51 AM 48.0 °F - 37.9 °F 68% 30.12 in 10.0 mi SW 3.5 mph - N/A   Overcast
12:51 PM 48.9 °F - 37.0 °F 64% 30.10 in 10.0 mi Calm Calm - N/A   Overcast
1:51 PM 51.8 °F - 37.4 °F 58% 30.08 in 10.0 mi Calm Calm - N/A Rain Light Rain
2:51 PM 52.0 °F - 39.0 °F 61% 30.07 in 10.0 mi South 9.2 mph - 0.00 in   Overcast
3:51 PM 51.1 °F - 41.0 °F 68% 30.06 in 10.0 mi SSW 8.1 mph - N/A   Partly Cloudy
4:51 PM 52.0 °F - 39.9 °F 63% 30.05 in 8.0 mi South 8.1 mph - N/A   Clear
5:51 PM 53.1 °F - 39.9 °F 61% 30.06 in 7.0 mi South 5.8 mph - N/A   Clear
6:51 PM 52.0 °F - 39.0 °F 61% 30.06 in 8.0 mi South 5.8 mph - N/A   Clear
7:51 PM 48.9 °F - 39.9 °F 71% 30.07 in 9.0 mi SSW 3.5 mph - N/A   Clear
8:51 PM 50.0 °F - 41.0 °F 71% 30.07 in 9.0 mi South 3.5 mph - N/A   Clear
9:51 PM 46.9 °F - 39.9 °F 77% 30.07 in 9.0 mi Calm Calm - N/A   Clear
10:51 PM 46.0 °F - 39.9 °F 79% 30.08 in 9.0 mi Calm Calm - N/A   Clear
11:51 PM 45.0 °F - 39.9 °F 82% 30.07 in 10.0 mi Calm Calm - N/A   Clear